Flag for Netherlands

Past Weather in 's-Hertogenbosch, Netherlands — Yesterday and Last 2 Weeks

Now
66 °F

Overcast.


Feels Like: 66 °F
Forecast: 65 / 53 °F
Wind: 7 mph from West

Location: Volkel
Current Time: Sep 29, 2020 at 5:09:37 pm
Latest Report: Sep 29, 2020 at 4:25 pm
Visibility: N/A
Pressure29.98 "Hg
Humidity: 60%
Dew Point: 52 °F
Location of 's-HertogenboschLocation

Past Weather in 's-Hertogenbosch — Graph

°F

's-Hertogenbosch Temperature Yesterday

Maximum temperature yesterday: 54 °F (at 12:25 am)
Minimum temperature yesterday: 54 °F (at 12:25 am)
Average temperature yesterday: 54 °F

High & Low Weather Summary for the Past Weeks

 TemperatureHumidityPressure
High93 °F (Sep 15, 3:25 pm)100% (Sep 21, 6:55 am)30.39 "Hg (Sep 21, 6:55 am)
Low43 °F (Sep 21, 7:25 am)26% (Sep 15, 3:25 pm)29.24 "Hg (Sep 26, 1:09 am)
Average60 °F72%29.84 "Hg
* Reported Sep 14 3:25 pm — Sep 29 3:29 pm, 's-Hertogenbosch. Weather by CustomWeather, © 2020

Note: Actual official high and low records may vary slightly from our data, if they occured in-between our weather recording intervals... More about our weather records

's-Hertogenbosch Weather History for the Previous 24 Hours

Scroll right to see more
 ConditionsComfort  
Time TempWeatherWind HumidityBarometerVisibility
3:29 pm
Tue, Sep 29
64 °FOvercast.7 mph64%29.98 "HgN/A
3:15 pm64 °FOvercast.7 mph64%29.98 "HgN/A
2:55 pm63 °FOvercast.6 mph73%29.98 "HgN/A
2:25 pm63 °FPartly sunny.6 mph77%30.01 "HgN/A
2:17 pm63 °FBroken clouds.6 mph77%30.01 "HgN/A
2:00 pm63 °FMostly cloudy.7 mph77%30.01 "HgN/A
1:25 pm61 °FOvercast.7 mph83%30.01 "HgN/A
1:19 pm61 °FOvercast.7 mph83%30.01 "HgN/A
12:57 pm59 °FOvercast.6 mph88%30.01 "HgN/A
12:25 pm57 °FOvercast.6 mph94%29.98 "HgN/A
12:16 pm57 °FOvercast.6 mph94%29.98 "HgN/A
12:05 pm57 °FMostly cloudy.6 mph88%29.98 "HgN/A
11:25 am57 °FPartly sunny.7 mph94%29.98 "HgN/A
11:16 am57 °FPartly sunny.6 mph94%29.98 "HgN/A
10:55 am55 °FLight rain. Partly sunny.8 mph100%29.98 "HgN/A
10:41 am55 °FLots of rain. Partly sunny.7 mph100%29.98 "Hg2 mi
10:25 am55 °FSprinkles. Mostly cloudy.7 mph100%29.98 "Hg4 mi
10:09 am57 °FRain. Broken clouds.7 mph94%29.98 "Hg3 mi
10:02 am57 °FRain. Broken clouds.7 mph94%29.95 "Hg3 mi
9:29 am57 °FRain showers. Broken clouds.7 mph94%29.95 "Hg4 mi
8:56 am57 °FFog.7 mph94%29.95 "Hg2 mi
8:33 am57 °FFog.7 mph94%29.95 "Hg1 mi
8:19 am55 °FFog.6 mph100%29.92 "Hg1 mi
7:55 am55 °FDrizzle. Low clouds.6 mph94%29.92 "Hg1 mi
7:25 am54 °FDrizzle. Mostly cloudy.5 mph100%29.92 "Hg1 mi
6:55 am54 °FDrizzle. Low clouds.3 mph100%29.92 "Hg1 mi
6:25 am54 °FDrizzle. Mostly cloudy.5 mph94%29.92 "Hg1 mi
6:21 am54 °FDrizzle. Mostly cloudy.3 mph94%29.92 "Hg1 mi
5:55 am54 °FDrizzle. Mostly cloudy.3 mph94%29.92 "Hg2 mi
5:32 am54 °FDrizzle. Mostly cloudy.5 mph94%29.89 "Hg1 mi
5:04 am54 °FFog.3 mph94%29.89 "Hg2 mi
4:59 am54 °FMostly cloudy.3 mph94%29.89 "HgN/A
4:25 am54 °FLow clouds.3 mph94%29.89 "HgN/A
4:09 am54 °FDrizzle. Overcast.5 mph94%29.89 "HgN/A
3:34 am54 °FMostly cloudy.3 mph88%29.89 "HgN/A
2:55 am54 °FMostly cloudy.2 mph94%29.89 "HgN/A
2:25 am54 °FOvercast.5 mph88%29.89 "HgN/A
1:55 am54 °FMostly cloudy.3 mph94%29.89 "HgN/A
1:25 am54 °FLow clouds.3 mph88%29.89 "HgN/A
12:59 am54 °FMostly cloudy.3 mph88%29.89 "HgN/A
12:36 am54 °FMostly cloudy.3 mph88%29.89 "HgN/A
12:04 am54 °FLow clouds.3 mph88%29.89 "HgN/A
11:55 pm
Mon, Sep 28
54 °FLow clouds.2 mph88%29.89 "HgN/A
11:27 pm54 °FLow clouds.3 mph94%29.89 "HgN/A
10:55 pm54 °FLow clouds.3 mph88%29.86 "HgN/A
10:26 pm54 °FLow clouds.3 mph88%29.86 "HgN/A
10:14 pm54 °FLow clouds.3 mph88%29.86 "HgN/A
9:55 pm54 °FLow clouds.5 mph88%29.86 "HgN/A
9:25 pm54 °FLow clouds.5 mph88%29.86 "HgN/A
8:55 pm54 °FLow clouds.5 mph88%29.86 "HgN/A
8:35 pm54 °FMostly cloudy.3 mph88%29.86 "HgN/A
8:25 pm54 °FMostly cloudy.3 mph88%29.86 "HgN/A
7:55 pm54 °FLow clouds.6 mph88%29.83 "HgN/A
7:25 pm54 °FMostly cloudy.6 mph88%29.83 "HgN/A
6:55 pm54 °FMore clouds than sun.6 mph88%29.83 "HgN/A
6:25 pm54 °FLow clouds.7 mph88%29.83 "HgN/A
6:12 pm54 °FMore clouds than sun.7 mph88%29.80 "HgN/A
5:59 pm54 °FMostly cloudy.8 mph88%29.80 "HgN/A
5:25 pm54 °FMostly cloudy.8 mph94%29.80 "HgN/A
Weather by CustomWeather, © 2020

See weather overview